FW8050 Weather Reports


Display with metric or nautical units.
time (UTC)temp
F
wind
direction
speed
MPH
gust
MPH
rain 1hr
in
rain 24hr
in
rain mn
in
humidity
%
barometer
mb
20210921151517 76 195 1.0 3.0 0.00 0.09 0.00 89 1030.3
20210921150517 75 187 1.0 2.0 0.00 0.10 0.00 89 1031.0
20210921145517 75 125 1.0 2.0 0.00 0.11 0.00 91 1028.4
20210921144520 74 219 2.0 3.0 0.00 0.12 0.00 93 1027.7
20210921143517 73 207 1.0 3.0 0.00 0.12 0.00 94 1026.5
20210921142518 73 205 1.0 3.0 0.00 0.12 0.00 94 1026.4
20210921141518 73 186 1.0 3.0 0.00 0.12 0.00 94 1026.4
20210921140518 73 213 1.0 2.0 0.00 0.12 0.00 95 1025.9
20210921135518 73 211 1.0 2.0 0.00 0.12 0.00 95 1025.6
20210921134518 72 0.0 0.0 0.00 0.12 0.00 96 1025.4
20210921133518 72 243 0.0 1.0 0.00 0.12 0.00 96 1025.0
20210921132518 72 111 0.0 1.0 0.00 0.12 0.00 96 1024.7
20210921131518 72 179 1.0 4.0 0.00 0.13 0.00 96 1024.8
20210921130519 72 207 1.0 4.0 0.00 0.13 0.00 96 1024.6
20210921125519 72 190 1.0 4.0 0.00 0.13 0.00 97 1024.2
20210921124519 71 167 1.0 5.0 0.00 0.14 0.00 98 1023.3
20210921123519 71 190 1.0 3.0 0.00 0.15 0.00 98 1022.7
20210921122519 71 190 1.0 2.0 0.00 0.15 0.00 98 1022.5
20210921121516 71 185 1.0 2.0 0.00 0.17 0.00 98 1022.2
20210921120520 71 202 1.0 3.0 0.00 0.18 0.00 98 1021.8
20210921115520 71 153 0.0 3.0 0.00 0.20 0.00 98 1021.3
20210921114520 71 188 1.0 3.0 0.00 0.23 0.00 98 1020.8
20210921113517 71 193 1.0 4.0 0.00 0.26 0.00 99 1020.2
20210921112517 71 214 0.0 2.0 0.00 0.28 0.00 100 1020.0
20210921111520 71 174 0.0 2.0 0.00 0.28 0.00 100 1020.0
20210921110520 71 228 0.0 2.0 0.00 0.28 0.00 100 1020.2
20210921105518 71 223 0.0 2.0 0.00 0.29 0.00 99 1020.3
20210921104518 71 240 0.0 1.0 0.00 0.29 0.00 99 1020.6
20210921103517 71 243 0.0 0.0 0.00 0.30 0.00 99 1021.0
20210921102518 71 221 0.0 1.0 0.00 0.30 0.00 98 1021.1
20210921101518 71 210 1.0 3.0 0.00 0.30 0.00 99 1021.4
20210921100518 71 223 1.0 3.0 0.00 0.30 0.00 98 1021.8
20210921095518 71 188 0.0 2.0 0.00 0.30 0.00 98 1021.8
20210921094518 71 179 1.0 2.0 0.00 0.30 0.00 98 1021.6
20210921093519 71 192 1.0 3.0 0.00 0.30 0.00 98 1021.4
20210921092518 71 186 1.0 3.0 0.00 0.30 0.00 98 1021.2
20210921091519 71 175 1.0 2.0 0.00 0.30 0.00 99 1021.1
20210921090519 71 74 0.0 1.0 0.00 0.30 0.00 98 1021.4
20210921085516 71 190 1.0 2.0 0.00 0.30 0.00 98 1021.5
20210921084516 71 172 1.0 2.0 0.00 0.30 0.00 98 1021.5
20210921083519 71 175 1.0 3.0 0.00 0.30 0.00 98 1021.5
20210921082520 71 168 1.0 3.0 0.00 0.30 0.00 98 1021.4
20210921081517 71 184 1.0 2.0 0.00 0.30 0.00 98 1021.3
20210921080517 72 188 1.0 2.0 0.00 0.30 0.00 98 1021.3
20210921075516 72 154 1.0 3.0 0.00 0.30 0.00 98 1021.3
20210921074517 72 180 1.0 3.0 0.00 0.30 0.00 97 1021.1
20210921073520 72 131 1.0 3.0 0.00 0.30 0.00 98 1021.1
20210921072517 71 231 0.0 1.0 0.00 0.30 0.00 98 1020.9
20210921071517 71 155 0.0 3.0 0.00 0.30 0.00 98 1020.4
20210921070520 71 195 0.0 2.0 0.00 0.30 0.00 98 1020.0
20210921065520 71 252 0.0 1.0 0.00 0.30 0.00 98 1020.0
20210921064517 72 197 0.0 2.0 0.00 0.30 0.00 97 1020.2
20210921063518 72 205 1.0 3.0 0.00 0.30 0.00 97 1020.2
20210921062518 72 201 1.0 3.0 0.00 0.30 0.00 97 1020.4
20210921061518 72 173 1.0 4.0 0.00 0.30 0.00 97 1020.5
20210921060519 72 156 1.0 3.0 0.00 0.30 0.00 96 1020.4
20210921055519 72 202 1.0 4.0 0.00 0.30 0.00 96 1020.3
20210921054519 72 190 1.0 3.0 0.00 0.30 0.00 96 1020.6
20210921053519 72 185 1.0 2.0 0.00 0.30 0.00 95 1020.8
20210921052519 72 181 1.0 4.0 0.00 0.30 0.00 95 1021.0
20210921051519 72 163 1.0 3.0 0.00 0.30 0.00 95 1021.2
20210921050519 72 191 1.0 3.0 0.00 0.30 0.00 95 1021.3
20210921045519 72 194 1.0 4.0 0.00 0.30 0.30 94 1021.4
20210921044520 72 207 1.0 2.0 0.00 0.30 0.30 94 1021.4
20210921043517 72 195 2.0 4.0 0.00 0.30 0.30 94 1021.4
20210921042516 72 204 1.0 3.0 0.00 0.30 0.30 94 1021.5
20210921041517 72 186 2.0 5.0 0.00 0.30 0.30 93 1021.4
20210921040520 72 188 2.0 6.0 0.00 0.30 0.30 93 1021.6
20210921035517 72 194 2.0 6.0 0.00 0.30 0.30 93 1021.6
20210921034517 72 181 2.0 4.0 0.00 0.30 0.30 93 1021.8
20210921033517 72 180 1.0 5.0 0.00 0.30 0.30 93 1021.7
20210921032518 72 167 2.0 5.0 0.00 0.30 0.30 93 1021.7
20210921031518 72 127 2.0 6.0 0.00 0.30 0.30 93 1021.6
20210921030519 72 200 2.0 6.0 0.00 0.30 0.30 93 1021.3
20210921025518 72 179 2.0 5.0 0.00 0.30 0.30 93 1021.3
20210921024518 72 163 2.0 5.0 0.00 0.30 0.30 93 1021.3
20210921023518 72 115 2.0 7.0 0.00 0.30 0.30 93 1021.1
20210921022518 72 169 2.0 6.0 0.00 0.30 0.30 93 1020.9
20210921021519 72 157 2.0 6.0 0.00 0.30 0.30 93 1020.8
20210921020519 72 148 2.0 5.0 0.00 0.30 0.30 93 1020.6
20210921015519 72 111 1.0 5.0 0.00 0.30 0.30 93 1020.5
20210921014516 72 126 1.0 4.0 0.00 0.30 0.30 93 1020.4
20210921013516 72 136 2.0 5.0 0.00 0.30 0.30 92 1020.2
20210921012519 72 169 2.0 4.0 0.00 0.30 0.30 93 1019.9
20210921011519 71 186 2.0 5.0 0.00 0.30 0.30 93 1019.6
20210921010517 71 177 2.0 4.0 0.00 0.30 0.30 93 1019.4
20210921005520 71 180 2.0 5.0 0.00 0.30 0.30 93 1019.2
20210921004519 71 115 2.0 6.0 0.00 0.30 0.30 93 1019.0
20210921003519 71 162 1.0 4.0 0.00 0.30 0.30 93 1018.7
20210921002518 71 92 2.0 7.0 0.00 0.30 0.30 93 1018.2
20210921001517 71 190 1.0 7.0 0.00 0.30 0.30 93 1017.9
20210921000517 71 165 2.0 6.0 0.00 0.30 0.30 94 1017.5
20210920235517 71 194 2.0 7.0 0.00 0.30 0.30 94 1017.1
20210920234518 71 193 2.0 7.0 0.02 0.30 0.30 94 1016.6
20210920233518 71 186 2.0 6.0 0.03 0.30 0.30 94 1016.1
20210920232518 71 198 2.0 7.0 0.03 0.30 0.30 95 1015.5
20210920231518 71 176 2.0 6.0 0.03 0.30 0.30 96 1015.0
20210920230518 71 140 1.0 4.0 0.04 0.30 0.30 97 1014.9
20210920225518 71 183 2.0 8.0 0.05 0.30 0.30 97 1014.7
20210920224518 71 162 1.0 4.0 0.03 0.28 0.27 96 1014.2
20210920223519 71 103 1.0 4.0 0.03 0.27 0.27 96 1013.5
20210920222519 72 68 2.0 7.0 0.03 0.27 0.27 96 1013.4
20210920221519 72 151 1.0 4.0 0.02 0.27 0.26 96 1013.6
20210920220516 72 128 2.0 6.0 0.01 0.26 0.25 95 1014.6
20210920215519 73 91 1.0 6.0 0.00 0.25 0.24 92 1015.3
20210920214519 73 130 1.0 4.0 0.00 0.25 0.24 91 1014.9
20210920213519 73 68 1.0 4.0 0.01 0.25 0.24 92 1014.3
20210920212516 73 156 2.0 5.0 0.03 0.26 0.24 92 1013.0
20210920211517 73 203 2.0 5.0 0.03 0.27 0.24 92 1012.1
20210920210520 73 183 2.0 5.0 0.03 0.28 0.24 94 1011.6
20210920205519 73 165 2.0 6.0 0.03 0.29 0.24 93 1011.4
20210920204517 74 146 2.0 4.0 0.03 0.29 0.24 93 1011.7
20210920203517 75 50 1.0 8.0 0.02 0.30 0.23 93 1013.4
20210920202517 76 197 1.0 4.0 0.00 0.30 0.21 89 1016.0
20210920201517 77 140 1.0 5.0 0.00 0.36 0.21 86 1017.5
20210920200518 79 167 1.0 5.0 0.00 0.41 0.21 86 1018.9
20210920195517 79 64 1.0 2.0 0.00 0.44 0.21 86 1019.4
20210920194518 79 180 0.0 2.0 0.00 0.45 0.21 86 1020.2
20210920193518 79 215 0.0 3.0 0.00 0.47 0.21 85 1020.4
20210920192518 79 190 1.0 3.0 0.00 0.49 0.21 85 1020.2
20210920191518 79 218 1.0 3.0 0.00 0.50 0.21 85 1020.1
20210920190518 79 184 1.0 3.0 0.00 0.51 0.21 84 1019.4
20210920185518 78 213 2.0 4.0 0.00 0.51 0.21 86 1018.9
20210920184518 79 175 1.0 3.0 0.00 0.56 0.21 85 1019.8
20210920183515 79 199 1.0 3.0 0.00 0.59 0.21 84 1021.9
20210920182519 80 210 1.0 3.0 0.00 0.63 0.21 84 1022.4
20210920181519 79 189 1.0 6.0 0.00 0.65 0.21 84 1021.1
20210920180519 78 207 2.0 4.0 0.00 0.67 0.21 84 1020.2
20210920175519 78 206 2.0 5.0 0.00 0.68 0.21 84 1020.3
20210920174516 78 198 1.0 4.0 0.00 0.77 0.21 86 1020.0
20210920173520 78 197 2.0 4.0 0.00 0.83 0.21 87 1021.0
20210920172520 78 165 1.0 3.0 0.00 0.94 0.21 87 1024.0
20210920171517 79 194 1.0 4.0 0.00 1.05 0.21 84 1028.9
20210920170516 78 204 1.0 3.0 0.00 1.21 0.21 87 1027.6
20210920165516 77 153 1.0 3.0 0.00 1.25 0.21 92 1029.2
20210920164519 75 159 0.0 2.0 0.00 1.34 0.21 94 1024.8
20210920163517 75 197 1.0 4.0 0.00 1.50 0.21 95 1022.7
20210920162517 75 213 1.0 3.0 0.00 1.54 0.21 95 1023.7
20210920161517 75 209 0.0 3.0 0.01 1.56 0.21 94 1024.3
20210920160517 75 196 1.0 3.0 0.02 1.58 0.21 94 1024.4
20210920155517 75 184 1.0 3.0 0.02 1.59 0.21 96 1028.9
20210920154518 74 193 1.0 3.0 0.03 1.60 0.21 97 1026.7
20210920153518 73 153 0.0 3.0 0.04 1.62 0.21 100 1025.0
20210920152518 73 161 0.0 2.0 0.04 1.63 0.21 100 1024.3